Overview Statistics Trail Chart Weather Telemetry Raw packets
 

This is the latest recevied weather packets stored in our database for station/object DG0LHZ-10. If no packets are shown the sender has not sent any weather packets the latest 10 day(s).

<< 21 22 23 24 25 26 27 >>
Time Temp. Humidity Pressure Rain* Wind** Luminosity Snow
1787857071 26.11° C 43% 1016.6 hPa - - - -
1787856171 26.67° C 42% 1016.8 hPa - - - -
1787855271 26.67° C 42% 1016.6 hPa - - - -
1787854370 27.22° C 41% 1016.6 hPa - - - -
1787853470 27.78° C 41% 1016.5 hPa - - - -
1787852570 28.33° C 41% 1016.6 hPa - - - -
1787851670 28.33° C 41% 1016.5 hPa - - - -
1787850770 28.89° C 41% 1016.6 hPa - - - -
1787849870 29.44° C 41% 1016.5 hPa - - - -
1787848970 30° C 39% 1016.5 hPa - - - -
1787848070 30° C 40% 1016.7 hPa - - - -
1787847170 30° C 40% 1016.8 hPa - - - -
1787846270 30.56° C 39% 1016.8 hPa - - - -
1787845370 31.11° C 38% 1016.8 hPa - - - -
1787844470 31.11° C 38% 1017 hPa - - - -
1787843570 31.11° C 39% 1017.2 hPa - - - -
1787842670 31.67° C 38% 1017.4 hPa - - - -
1787841769 31.67° C 38% 1017.3 hPa - - - -
1787840869 31.67° C 39% 1017.5 hPa - - - -
1787839969 31.67° C 39% 1017.5 hPa - - - -
1787839069 31.67° C 39% 1017.1 hPa - - - -
1787838169 31.67° C 39% 1017.3 hPa - - - -
1787837269 31.11° C 40% 1017.4 hPa - - - -
1787836369 31.11° C 40% 1017.4 hPa - - - -
1787835469 30.56° C 39% 1017.7 hPa - - - -

* Rain since midnight (hover to see other rain measurements)
** Current wind speed in m/s (hover to see current wind gust speed)